HELLAS-SAT 4 & SGS-1 (44034 NORAD) Tracking and Keplerian Element Data

This shows tracking and keplerian element data for the satellite.

Feedback or suggestion? Click here.




ElementValue
Catalog44034
NameHELLAS-SAT 4 & SGS-1
Epoch Orbit1992
Epoch Day157.98382564
Epoch Year2024
RAAN126.0031
Inclination0.0738
Eccentricity0.0004809
Argument of Perigee13.9951
Mean Anonmoly148.0504
Mean Motion1.00273975
Decay Rate1.55E-06
L11 44034U 19007A 24157.98382564 .00000155 00000+0 00000+0 0 9995
L22 44034 0.0738 126.0031 0004809 13.9951 148.0504 1.00273975 19924



Live tracking and technical data element details for HELLAS-SAT 4 & SGS-1 (NORAD 44034). HELLAS-SAT 4 & SGS-1 can be tracked NOW for your location showing map with azimuth and elevation plus other details from your city location.







IsCatalogInMostPopularTable: catalog: 44034, numindb: 640
Update: records affected: 1



GetName: 44034 HELLAS-SAT 4 & SGS-1

Hit Count: updated at: Mon, 17 Jun 2024 22:46:39 GMT